KB2SKP Weather Reports


Display with metric or nautical units.
time (UTC)temp
F
wind
direction
speed
MPH
gust
MPH
rain 1hr
in
rain 24hr
in
rain mn
in
humidity
%
barometer
mb
20260505001818 66 119 2.0 2.0 0.00 0.00 0.00 50 1007.7
20260505001315 66 141 0.0 1.0 0.00 0.00 0.00 49 1007.7
20260505000812 67 326 0.0 0.0 0.00 0.00 0.00 49 1007.3
20260505000310 67 80 0.0 2.0 0.00 0.00 0.00 48 1007.8
20260504235806 68 193 0.0 0.0 0.00 0.00 0.00 47 1007.5
20260504235304 68 193 0.0 0.0 0.00 0.00 0.00 45 1007.4
20260504234800 69 168 0.0 0.0 0.00 0.00 0.00 45 1007.5
20260504234258 69 168 0.0 0.0 0.00 0.00 0.00 44 1007.5
20260504233754 70 69 0.0 1.0 0.00 0.00 0.00 43 1007.3
20260504233249 70 49 0.0 0.0 0.00 0.00 0.00 44 1007.4
20260504232746 71 89 0.0 0.0 0.00 0.00 0.00 41 1007.4
20260504232243 71 76 0.0 0.0 0.00 0.00 0.00 41 1007.3
20260504231740 72 142 0.0 1.0 0.00 0.00 0.00 41 1007.2
20260504231237 72 191 0.0 3.0 0.00 0.00 0.00 39 1007.2
20260504230732 72 158 1.0 1.0 0.00 0.00 0.00 39 1007.3
20260504230232 73 327 0.0 2.0 0.00 0.00 0.00 40 1007.1
20260504225730 73 95 0.0 0.0 0.00 0.00 0.00 38 1007.4
20260504225226 73 117 0.0 1.0 0.00 0.00 0.00 36 1007.3
20260504224723 73 117 0.0 3.0 0.00 0.00 0.00 36 1007.4
20260504224220 74 240 0.0 3.0 0.00 0.00 0.00 36 1007.3
20260504223716 73 207 2.0 3.0 0.00 0.00 0.00 35 1007.2
20260504223212 74 102 0.0 2.0 0.00 0.00 0.00 35 1007.4
20260504222709 74 142 0.0 1.0 0.00 0.00 0.00 35 1007.3
20260504222206 74 89 0.0 3.0 0.00 0.00 0.00 35 1007.4
20260504221704 74 343 0.0 3.0 0.00 0.00 0.00 34 1007.3
20260504221201 74 114 0.0 1.0 0.00 0.00 0.00 35 1007.5
20260504220657 74 290 0.0 1.0 0.00 0.00 0.00 35 1007.5
20260504220155 74 129 0.0 2.0 0.00 0.00 0.00 34 1007.4
20260504215651 75 239 1.0 3.0 0.00 0.00 0.00 33 1007.4
20260504215148 75 326 0.0 2.0 0.00 0.00 0.00 34 1007.4
20260504214644 75 126 0.0 2.0 0.00 0.00 0.00 33 1007.6
20260504214140 75 111 2.0 6.0 0.00 0.00 0.00 33 1007.6
20260504213637 75 55 2.0 3.0 0.00 0.00 0.00 33 1007.7
20260504213134 76 123 0.0 2.0 0.00 0.00 0.00 37 1007.5
20260504212630 75 136 1.0 3.0 0.00 0.00 0.00 34 1007.3
20260504212127 74 240 3.0 3.0 0.00 0.00 0.00 35 1007.7
20260504211625 75 23 2.0 3.0 0.00 0.00 0.00 34 1007.7
20260504211121 74 89 0.0 2.0 0.00 0.00 0.00 36 1007.4
20260504210619 75 195 0.0 2.0 0.00 0.00 0.00 34 1007.6
20260504210115 75 244 1.0 3.0 0.00 0.00 0.00 32 1007.7
20260504205613 75 117 0.0 1.0 0.00 0.00 0.00 33 1007.7
20260504205110 75 224 0.0 2.0 0.00 0.00 0.00 32 1007.6
20260504204609 75 64 0.0 6.0 0.00 0.00 0.00 32 1007.3
20260504204107 76 85 1.0 3.0 0.00 0.00 0.00 31 1007.3
20260504203605 77 86 0.0 2.0 0.00 0.00 0.00 31 1007.3
20260504203102 77 220 2.0 2.0 0.00 0.00 0.00 30 1007.2
20260504202557 76 178 1.0 3.0 0.00 0.00 0.00 31 1007.5
20260504202054 77 164 1.0 3.0 0.00 0.00 0.00 30 1007.5
20260504201551 76 76 1.0 3.0 0.00 0.00 0.00 31 1007.4
20260504201049 76 85 1.0 3.0 0.00 0.00 0.00 31 1007.6
20260504200545 76 76 0.0 3.0 0.00 0.00 0.00 31 1007.6
20260504200042 76 152 0.0 4.0 0.00 0.00 0.00 30 1007.9
20260504195538 77 138 1.0 4.0 0.00 0.00 0.00 32 1007.8
20260504195035 76 268 2.0 4.0 0.00 0.00 0.00 31 1008.1
20260504194531 77 113 2.0 3.0 0.00 0.00 0.00 32 1007.8
20260504194027 76 325 2.0 3.0 0.00 0.00 0.00 32 1008.0
20260504193524 77 95 2.0 2.0 0.00 0.00 0.00 32 1008.1
20260504193023 76 182 2.0 3.0 0.00 0.00 0.00 32 1008.1
20260504192520 75 108 1.0 5.0 0.00 0.00 0.00 30 1008.2
20260504192019 77 207 3.0 3.0 0.00 0.00 0.00 32 1008.5
20260504191516 77 239 3.0 4.0 0.00 0.00 0.00 31 1008.6
20260504191012 76 167 2.0 3.0 0.00 0.00 0.00 32 1008.6
20260504190508 75 213 1.0 4.0 0.00 0.00 0.00 31 1008.5
20260504190004 75 235 2.0 3.0 0.00 0.00 0.00 30 1008.7
20260504185501 75 84 2.0 3.0 0.00 0.00 0.00 31 1008.3
20260504184958 75 163 1.0 3.0 0.00 0.00 0.00 32 1008.7
20260504184453 74 34 0.0 4.0 0.00 0.00 0.00 32 1008.8
20260504183949 74 269 0.0 3.0 0.00 0.00 0.00 32 1008.7
20260504183446 74 106 2.0 3.0 0.00 0.00 0.00 32 1009.0
20260504182944 74 96 2.0 4.0 0.00 0.00 0.00 32 1009.1
20260504182441 75 131 2.0 4.0 0.00 0.00 0.00 33 1009.1
20260504181938 74 199 1.0 3.0 0.00 0.00 0.00 32 1009.1
20260504181435 75 80 2.0 3.0 0.00 0.00 0.00 31 1009.2
20260504180934 75 232 1.0 3.0 0.00 0.00 0.00 34 1009.3
20260504180432 74 266 2.0 2.0 0.00 0.00 0.00 33 1009.2
20260504175930 74 161 2.0 3.0 0.00 0.00 0.00 32 1009.4
20260504175427 74 180 2.0 5.0 0.00 0.00 0.00 33 1009.3
20260504174925 74 108 1.0 3.0 0.00 0.00 0.00 33 1009.3
20260504174422 73 232 2.0 5.0 0.00 0.00 0.00 33 1009.1
20260504173919 73 69 2.0 3.0 0.00 0.00 0.00 33 1009.5
20260504173416 73 161 3.0 3.0 0.00 0.00 0.00 33 1009.8
20260504172913 73 55 5.0 5.0 0.00 0.00 0.00 34 1009.7
20260504172409 73 138 1.0 3.0 0.00 0.00 0.00 34 1009.8
20260504171905 72 221 3.0 10.0 0.00 0.00 0.00 33 1009.7
20260504171403 72 279 3.0 4.0 0.00 0.00 0.00 34 1009.9
20260504170900 72 117 2.0 5.0 0.00 0.00 0.00 34 1010.1
20260504170356 72 120 3.0 4.0 0.00 0.00 0.00 33 1009.9
20260504160315 69 13 0.0 3.0 0.00 0.00 0.00 36 1010.7
20260504150740 67 180 0.0 2.0 0.00 0.00 0.00 38 1011.1
20260504150236 66 286 2.0 3.0 0.00 0.00 0.00 39 1010.9
20260504141206 63 143 4.0 6.0 0.00 0.00 0.00 44 1011.2
20260504140703 63 116 1.0 2.0 0.00 0.00 0.00 50 1011.1
20260504140158 62 177 0.0 3.0 0.00 0.00 0.00 49 1011.1
20260504130626 58 120 2.0 5.0 0.00 0.00 0.00 56 1011.7
20260504130123 58 163 2.0 3.0 0.00 0.00 0.00 58 1011.6
20260504110515 53 52 1.0 2.0 0.00 0.00 0.00 67 1012.2
20260504100437 52 124 0.0 2.0 0.00 0.00 0.00 71 1012.4
20260504081830 51 146 0.0 3.0 0.00 0.00 0.00 77 1012.5
20260504081326 51 88 2.0 3.0 0.00 0.00 0.00 76 1012.5
20260504080822 50 120 1.0 3.0 0.00 0.00 0.00 78 1012.6
20260504080320 50 56 0.0 3.0 0.00 0.00 0.00 79 1012.6
20260504070241 48 76 1.0 3.0 0.00 0.00 0.00 82 1012.9
20260504060202 47 119 1.0 3.0 0.00 0.00 0.00 84 1012.6
20260504050630 45 102 2.0 3.0 0.00 0.00 0.00 85 1013.0
20260504050127 45 99 2.0 3.0 0.00 0.00 0.00 85 1012.9
20260504045624 44 110 3.0 3.0 0.00 0.00 0.00 85 1012.9
20260504045118 44 91 2.0 3.0 0.00 0.00 0.00 85 1012.9
20260504044617 44 117 1.0 2.0 0.00 0.00 0.00 85 1012.9
20260504044113 44 94 2.0 3.0 0.00 0.00 0.00 85 1013.0
20260504043610 44 111 2.0 3.0 0.00 0.00 0.00 85 1012.9
20260504043108 43 103 2.0 3.0 0.00 0.00 0.00 85 1013.1
20260504042605 43 115 2.0 3.0 0.00 0.00 0.00 85 1013.0
20260504042101 43 114 2.0 3.0 0.00 0.00 0.00 85 1012.8
20260504041557 43 102 2.0 3.0 0.00 0.00 0.00 85 1012.8
20260504041054 43 83 2.0 2.0 0.00 0.00 0.00 85 1012.8
20260504040551 43 106 1.0 2.0 0.00 0.00 0.00 84 1012.9
20260504040047 43 86 1.0 3.0 0.00 0.00 0.00 84 1012.8
20260504035544 44 111 2.0 3.0 0.00 0.00 0.00 84 1012.7
20260504035040 44 103 2.0 3.0 0.00 0.00 0.00 83 1012.7
20260504034539 44 105 2.0 2.0 0.00 0.00 0.00 83 1012.8
20260504034035 44 105 2.0 3.0 0.00 0.00 0.00 82 1012.8
20260504033533 44 107 2.0 3.0 0.00 0.00 0.00 82 1012.5
20260504033030 44 132 2.0 3.0 0.00 0.00 0.00 82 1012.7
20260504032527 44 109 2.0 3.0 0.00 0.00 0.00 82 1012.5
20260504032024 44 115 3.0 3.0 0.00 0.00 0.00 81 1012.6
20260504031521 44 97 2.0 3.0 0.00 0.00 0.00 81 1012.4
20260504031017 44 83 2.0 3.0 0.00 0.00 0.00 80 1012.6
20260504030515 44 107 2.0 3.0 0.00 0.00 0.00 80 1012.5
20260504030011 44 108 1.0 2.0 0.00 0.00 0.00 80 1012.5
20260504025508 44 109 2.0 3.0 0.00 0.00 0.00 80 1012.6
20260504025005 44 155 2.0 3.0 0.00 0.00 0.00 79 1012.6
20260504024502 44 101 2.0 3.0 0.00 0.00 0.00 79 1012.5
20260504023959 44 110 2.0 3.0 0.00 0.00 0.00 79 1012.4
20260504023455 44 94 2.0 3.0 0.00 0.00 0.00 78 1012.4
20260504022950 44 102 2.0 3.0 0.00 0.00 0.00 78 1012.4
20260504022447 45 121 1.0 3.0 0.00 0.00 0.00 77 1012.4
20260504021944 45 144 1.0 3.0 0.00 0.00 0.00 77 1012.3
20260504021441 45 107 2.0 2.0 0.00 0.00 0.00 77 1012.4
20260504020938 45 112 1.0 2.0 0.00 0.00 0.00 77 1012.4
20260504020435 45 121 2.0 2.0 0.00 0.00 0.00 76 1012.4
20260504015932 45 118 2.0 2.0 0.00 0.00 0.00 75 1012.2
20260504015427 45 107 1.0 2.0 0.00 0.00 0.00 75 1012.1
20260504014923 46 107 2.0 3.0 0.00 0.00 0.00 75 1012.3
20260504014420 46 109 2.0 2.0 0.00 0.00 0.00 74 1012.3
20260504013917 46 123 1.0 2.0 0.00 0.00 0.00 74 1012.4
20260504013415 46 106 2.0 2.0 0.00 0.00 0.00 73 1012.1
20260504012911 46 118 2.0 2.0 0.00 0.00 0.00 72 1012.3
20260504012409 47 121 2.0 2.0 0.00 0.00 0.00 72 1012.2
20260504011906 47 124 0.0 2.0 0.00 0.00 0.00 71 1012.1
20260504011403 47 125 2.0 3.0 0.00 0.00 0.00 70 1012.0
20260504010859 47 135 0.0 2.0 0.00 0.00 0.00 69 1012.1
20260504010354 48 100 2.0 2.0 0.00 0.00 0.00 68 1012.0
20260504005845 48 102 1.0 2.0 0.00 0.00 0.00 68 1012.1
20260504005342 48 112 1.0 2.0 0.00 0.00 0.00 66 1012.1
20260504004840 49 94 1.0 2.0 0.00 0.00 0.00 65 1011.9
20260504004337 50 130 2.0 2.0 0.00 0.00 0.00 64 1012.0
20260504003834 50 112 1.0 2.0 0.00 0.00 0.00 62 1011.8
20260504003331 50 109 0.0 2.0 0.00 0.00 0.00 62 1011.7
20260504002827 51 97 0.0 1.0 0.00 0.00 0.00 59 1011.7
20260504002324 51 135 0.0 1.0 0.00 0.00 0.00 58 1011.7